Antigo, WI

12:37 AM CDT on September 27, 2016 (GMT -0500)
Langlade County

Weather History for KAIG - March, 2013

Change the Weather History Date:

Sunday, March 3, 2013

  Actual Average Record
Temperature  
Mean Temperature 8 °F -  
Max Temperature 25 °F 31 °F 48 °F (1974)
Min Temperature -9 °F 11 °F -28 °F (2014)
Degree Days  
Heating Degree Days 57    
Moisture  
Dew Point -2 °F    
Average Humidity 68    
Maximum Humidity 88    
Minimum Humidity 35    
Precipitation  
Precipitation 0.00 in - - ()
Sea Level Pressure  
Sea Level Pressure 30.06 in    
Wind  
Wind Speed 2 mph (NNE)    
Max Wind Speed 9 mph    
Max Gust Speed -    
Visibility 10 miles    
Events      
Averages and records for this station are not official NWS values.
T = Trace of Precipitation, MM = Missing Value Source: NWS Daily Summary

Daily Weather History Graph

Daily Weather History Graph

Search for Another Location

Airport or City:

Trip Planner

Search our weather history database for the weather conditions in past years. The results will help you decide how hot, cold, wet, or windy it might be!

Date:

Astronomy

Mar. 03, 2013 Rise Set
Actual Time 6:30 AM CST 5:46 PM CST
Civil Twilight 6:00 AM CST 6:16 PM CST
Nautical Twilight 5:26 AM CST 6:50 PM CST
Astronomical Twilight 4:52 AM CST 7:24 PM CST
Moon No Moon Rise 9:27 AM CST (3/3)
Length of Visible Light 12h 15m
Length of Day
11h 16m
Waning Gibbous, 63% of the Moon is Illuminated
Mar 3
Waning Gibbous
Mar 4
Last Quarter
Mar 11
New
Mar 19
First Quarter
Mar 27
Full

Hourly Weather History & Observations

Time (CST) Temp. Windchill Dew Point Humidity Pressure Visibility Wind Dir Wind Speed Gust Speed Precip Events Conditions
12:15 AM 4.1 °F -3.2 °F -0.9 °F 80% 30.10 in 10.0 mi NNE 3.5 mph - N/A   Clear
12:35 AM 2.5 °F -5.0 °F -2.4 °F 80% 30.10 in 10.0 mi North 3.5 mph - N/A   Clear
12:55 AM 1.9 °F -7.6 °F -2.2 °F 83% 30.10 in 10.0 mi North 4.6 mph - N/A   Clear
1:15 AM 0.7 °F - -2.9 °F 85% 30.10 in 10.0 mi Calm Calm - N/A   Clear
1:35 AM -1.3 °F -11.4 °F -4.9 °F 85% 30.10 in 10.0 mi North 4.6 mph - N/A   Clear
1:55 AM -3.1 °F -13.5 °F -6.3 °F 86% 30.09 in 10.0 mi North 4.6 mph - N/A   Clear
2:15 AM -0.8 °F -10.8 °F -3.6 °F 88% 30.09 in 10.0 mi North 4.6 mph - N/A   Clear
2:35 AM -1.8 °F -13.7 °F -4.9 °F 87% 30.08 in 10.0 mi North 5.8 mph - N/A   Clear
2:55 AM -1.1 °F -12.9 °F -3.8 °F 88% 30.08 in 10.0 mi North 5.8 mph - N/A   Clear
3:15 AM -0.8 °F -10.8 °F -3.5 °F 88% 30.08 in 10.0 mi North 4.6 mph - N/A   Clear
3:35 AM -4.5 °F - -7.8 °F 86% 30.08 in 10.0 mi Calm Calm - N/A   Clear
3:55 AM -5.8 °F -14.5 °F -8.7 °F 87% 30.08 in 10.0 mi NNW 3.5 mph - N/A   Clear
4:15 AM -4.9 °F - -7.8 °F 87% 30.08 in 10.0 mi Calm Calm - N/A   Clear
4:35 AM -4.4 °F - -7.4 °F 87% 30.09 in 10.0 mi Calm Calm - N/A   Clear
4:55 AM -6.0 °F - -9.2 °F 86% 30.09 in 10.0 mi Calm Calm - N/A   Clear
5:15 AM -4.9 °F - -7.6 °F 88% 30.09 in 4.0 mi Calm Calm - N/A   Clear
5:35 AM -6.0 °F - -9.2 °F 86% 30.09 in 10.0 mi Calm Calm - N/A   Clear
5:55 AM -7.4 °F - -11.0 °F 84% 30.09 in 10.0 mi Calm Calm - N/A   Clear
6:15 AM -8.0 °F - -11.7 °F 84% 30.09 in 10.0 mi Calm Calm - N/A   Clear
6:35 AM -8.9 °F - -13.0 °F 82% 30.10 in 10.0 mi Calm Calm - N/A   Clear
6:55 AM -9.6 °F - -14.1 °F 81% 30.10 in 10.0 mi Calm Calm - N/A   Clear
7:15 AM -8.1 °F - -12.5 °F 81% 30.10 in 10.0 mi Calm Calm - N/A   Clear
7:35 AM -5.8 °F - -9.9 °F 82% 30.10 in 10.0 mi Calm Calm - N/A   Clear
7:55 AM -6.2 °F - -9.9 °F 84% 30.10 in 10.0 mi Calm Calm - N/A   Clear
8:15 AM -4.2 °F - -8.0 °F 84% 30.10 in 10.0 mi Calm Calm - N/A   Clear
8:35 AM -0.6 °F - -4.2 °F 85% 30.10 in 10.0 mi Calm Calm - N/A   Clear
8:55 AM 1.9 °F - -1.7 °F 85% 30.10 in 10.0 mi Calm Calm - N/A   Clear
9:15 AM 3.0 °F - -0.6 °F 85% 30.10 in 10.0 mi Calm Calm - N/A   Clear
9:35 AM 5.4 °F -1.7 °F 2.1 °F 86% 30.09 in 10.0 mi NE 3.5 mph - N/A   Clear
9:55 AM 9.0 °F - 5.0 °F 84% 30.08 in 10.0 mi Calm Calm - N/A   Clear
10:15 AM 12.7 °F 6.7 °F 5.5 °F 73% 30.08 in 10.0 mi NNE 3.5 mph - N/A   Clear
10:35 AM 15.6 °F 10.0 °F 5.0 °F 63% 30.08 in 10.0 mi North 3.5 mph - N/A   Clear
10:55 AM 17.6 °F - 5.0 °F 58% 30.07 in 10.0 mi Calm Calm - N/A   Clear
11:15 AM 19.0 °F - 4.3 °F 53% 30.07 in 10.0 mi Calm Calm - N/A   Clear
11:35 AM 19.9 °F - 3.2 °F 48% 30.07 in 10.0 mi Calm Calm - N/A   Clear
11:55 AM 20.7 °F - 3.2 °F 47% 30.06 in 10.0 mi Calm Calm - N/A   Clear
12:15 PM 21.2 °F - 2.5 °F 44% 30.05 in 10.0 mi Calm Calm - N/A   Clear
12:35 PM 21.7 °F - 3.0 °F 45% 30.05 in 10.0 mi Calm Calm - N/A   Clear
12:55 PM 22.6 °F - 1.6 °F 40% 30.04 in 10.0 mi Calm Calm - N/A   Clear
1:15 PM 23.4 °F - 1.6 °F 39% 30.03 in 10.0 mi Calm Calm - N/A   Clear
1:35 PM 24.3 °F - 0.7 °F 36% 30.03 in 10.0 mi Calm Calm - N/A   Clear
1:55 PM 23.5 °F - 4.1 °F 43% 30.03 in 10.0 mi Calm Calm - N/A   Clear
2:15 PM 23.9 °F 19.5 °F 5.4 °F 45% 30.02 in 10.0 mi South 3.5 mph - N/A   Clear
2:35 PM 24.3 °F - 7.0 °F 48% 30.02 in 10.0 mi Calm Calm - N/A   Clear
2:55 PM 24.6 °F - 5.4 °F 44% 30.02 in 10.0 mi Calm Calm - N/A   Clear
3:15 PM 24.4 °F 20.1 °F 5.7 °F 45% 30.02 in 10.0 mi South 3.5 mph - N/A   Clear
3:55 PM 23.9 °F - 5.2 °F 45% 30.01 in 10.0 mi Calm Calm - N/A   Clear
4:15 PM 24.6 °F - 2.3 °F 38% 30.01 in 10.0 mi Calm Calm - N/A   Clear
4:35 PM 25.2 °F - 1.0 °F 35% 30.02 in 10.0 mi Calm Calm - N/A   Clear
4:55 PM 23.5 °F 19.1 °F 1.0 °F 38% 30.01 in 10.0 mi SSW 3.5 mph - N/A   Clear
5:15 PM 23.2 °F - 0.7 °F 38% 30.01 in 10.0 mi Calm Calm - N/A   Clear
5:35 PM 20.8 °F - 2.5 °F 45% 30.01 in 10.0 mi Calm Calm - N/A   Clear
5:55 PM 20.5 °F - 1.9 °F 45% 30.01 in 10.0 mi Calm Calm - N/A   Clear
6:35 PM 13.5 °F - 0.3 °F 56% 30.02 in 10.0 mi Calm Calm - N/A   Clear
6:55 PM 9.5 °F - -0.6 °F 64% 30.02 in 10.0 mi Calm Calm - N/A   Clear
7:15 PM 10.2 °F 3.8 °F -0.4 °F 62% 30.02 in 10.0 mi NE 3.5 mph - N/A   Clear
7:35 PM 5.9 °F -1.1 °F -2.6 °F 68% 30.02 in 10.0 mi NE 3.5 mph - N/A   Clear
7:55 PM 6.6 °F -2.2 °F -1.8 °F 68% 30.02 in 10.0 mi NE 4.6 mph - N/A   Clear
8:15 PM 8.2 °F -1.8 °F -2.6 °F 61% 30.02 in 10.0 mi East 5.8 mph - N/A   Clear
8:35 PM 7.0 °F - -3.3 °F 63% 30.04 in 10.0 mi Calm Calm - N/A   Clear
8:55 PM 7.7 °F - -2.2 °F 64% 30.05 in 10.0 mi Calm Calm - N/A   Clear
9:15 PM 6.3 °F - -3.5 °F 64% 30.05 in 10.0 mi Calm Calm - N/A   Clear
9:35 PM 3.9 °F - -4.5 °F 68% 30.04 in 10.0 mi Calm Calm - N/A   Clear
9:55 PM 4.5 °F -2.7 °F -3.3 °F 70% 30.05 in 10.0 mi NE 3.5 mph - N/A   Clear
10:15 PM 3.2 °F -4.2 °F -3.5 °F 74% 30.04 in 10.0 mi ENE 3.5 mph - N/A   Clear
10:35 PM 2.8 °F - -4.0 °F 73% 30.04 in 10.0 mi Calm Calm - N/A   Clear
10:55 PM -0.0 °F - -5.6 °F 77% 30.03 in 10.0 mi Calm Calm - N/A   Clear
11:15 PM -0.2 °F -8.1 °F -6.0 °F 77% 30.03 in 10.0 mi NNE 3.5 mph - N/A   Clear
11:35 PM -0.9 °F -8.9 °F -6.3 °F 78% 30.04 in 10.0 mi NE 3.5 mph - N/A   Clear
11:55 PM 0.5 °F -14.6 °F -4.5 °F 79% 30.05 in 10.0 mi NE 9.2 mph - N/A   Clear